Regional Weather Roundup
Issued by NWS Little Rock, AR

Home | Current Version | Previous Version | Graphics & Text | Print | Product List | Glossary On
Versions: 1 2 3 4 5 6 7 8 9 10 11 12 13 14 15 16 17 18 19 20 21 22 23 24 25 26 27 28 29 30 31 32
000
ASUS44 KLZK 260015
RWRLZK

WEATHER ROUNDUP FOR ARKANSAS
NATIONAL WEATHER SERVICE LITTLE ROCK AR
700 PM CDT WED APR 25 2018

NOTE: "FAIR" INDICATES FEW OR NO CLOUDS BELOW 12,000 FEET WITH NO
SIGNIFICANT WEATHER AND/OR OBSTRUCTIONS TO VISIBILITY.

ARZ001-003-010-029-260100-
NORTHWEST ARKANSAS

CITY           SKY/WX    TMP DP  RH WIND       PRES   REMARKS
FAYETTEVILLE   LGT RAIN  52  51  97 NW9       29.98F FOG
6HR MIN TEMP:  52; 6HR MAX TEMP:  55; 6HR PCP:  0.16;

FORT SMITH     LGT RAIN  54  53  97 W12       30.00S
6HR MIN TEMP:  55; 6HR MAX TEMP:  59; 6HR PCP:  0.03;

HARRISON       CLOUDY    51  51 100 SE3       29.98F
6HR MIN TEMP:  51; 6HR MAX TEMP:  53; 6HR PCP:  0.21;

BENTONVILLE    LGT RAIN  52  50  93 NW7       30.00F FOG
6HR MIN TEMP:  52; 6HR MAX TEMP:  55; 6HR PCP:  0.25;

ROGERS         RAIN      51  50  96 W7        29.99S FOG
6HR MIN TEMP:  51; 6HR MAX TEMP:  54; 6HR PCP:  0.30;

SILOAM SPGS    LGT RAIN  51  50  96 W10       30.00S
6HR MIN TEMP:  51; 6HR MAX TEMP:  55; 6HR PCP:  0.19;

HIGHFILL       LGT RAIN  52  49  89 NW9       29.99F
6HR MIN TEMP:  52; 6HR MAX TEMP:  56; 6HR PCP:  0.22;

SPRINGDALE     RAIN      52  52 100 NW13      29.99F FOG
$$

ARZ004-005-016-260100-
NORTH CENTRAL ARKANSAS

CITY           SKY/WX    TMP DP  RH WIND       PRES   REMARKS
BATESVILLE     LGT RAIN  55  55 100 NW6       29.98F FOG
6HR MIN TEMP:  54; 6HR MAX TEMP:  61; 6HR PCP:  0.17;

FLIPPIN        RAIN      54  54 100 CALM      29.99F FOG
6HR MIN TEMP:  53; 6HR MAX TEMP:  55;

MTN HOME       LGT RAIN  52  52 100 E5        29.97F
6HR MIN TEMP:  52; 6HR MAX TEMP:  54; 6HR PCP:  0.20;

$$

ARZ040-041-260100-
WEST CENTRAL ARKANSAS

CITY           SKY/WX    TMP DP  RH WIND       PRES   REMARKS
MENA           NOT AVBL
MOUNT IDA      CLOUDY    55  55 100 CALM      29.96S
6HR MIN TEMP:  54; 6HR MAX TEMP:  56; 6HR PCP:  0.26;

$$

ARZ009-017-025-026-028-260100-
NORTHEAST ARKANSAS

CITY           SKY/WX    TMP DP  RH WIND       PRES   REMARKS
CORNING        CLOUDY    61  54  77 W3        29.98F
JONESBORO      CLOUDY    58  56  93 CALM      29.96F
6HR MIN TEMP:  58; 6HR MAX TEMP:  66; 6HR PCP:  0.13;

NEWPORT        CLOUDY    59  54  83 NE3       29.97F
6HR MIN TEMP:  56; 6HR MAX TEMP:  68; 6HR PCP:  0.01;

WALNUT RIDGE   LGT RAIN  57  55  93 NW6       29.98F
6HR MIN TEMP:  57; 6HR MAX TEMP:  66; 6HR PCP:  0.07;

BLYTHEVILLE    CLOUDY    60  51  72 CALM      29.96F
6HR MIN TEMP:  59; 6HR MAX TEMP:  69; 6HR PCP:  0.03;

$$

ARZ022-023-033-042-044-260100-
CENTRAL ARKANSAS

CITY           SKY/WX    TMP DP  RH WIND       PRES   REMARKS
LITTLE ROCK    LGT RAIN  55  54  96 E3        29.95F FOG
6HR MIN TEMP:  55; 6HR MAX TEMP:  68; 6HR PCP:  0.27;

N LITTLE ROCK    N/A     54  53  97 CALM      29.92S
6HR MIN TEMP:  54; 6HR MAX TEMP:  65;

JACKSONVILLE   LGT RAIN  56  56  99 NE5       29.94F
6HR MIN TEMP:  56; 6HR MAX TEMP:  68; 6HR PCP:  0.25;

CONWAY         CLOUDY    57  57 100 CALM      29.97F FOG
SEARCY         LGT RAIN  58  57  97 N3        29.96F
6HR MIN TEMP:  56; 6HR MAX TEMP:  71; 6HR PCP:  0.09;

HOT SPRINGS    LGT RAIN  57  57 100 NW3       29.97S FOG
6HR MIN TEMP:  57; 6HR MAX TEMP:  58; 6HR PCP:  0.16;

RUSSELLVILLE   LGT RAIN  55  55 100 SW3       29.97F FOG
6HR MIN TEMP:  54; 6HR MAX TEMP:  57; 6HR PCP:  0.18;

CLINTON        LGT RAIN  55  54  94 CALM      29.98F
$$

ARZ036-260100-
EAST ARKANSAS

CITY           SKY/WX    TMP DP  RH WIND       PRES   REMARKS
WEST MEMPHIS   CLOUDY    61  50  67 E5        29.96F
6HR MIN TEMP:  61; 6HR MAX TEMP:  72; 6HR PCP:  0.01;

$$

ARZ050-053-066-070-073-260100-
SOUTHWEST ARKANSAS

CITY           SKY/WX    TMP DP  RH WIND       PRES   REMARKS
ARKADELPHIA    CLOUDY    58  57  97 NW3       29.98R
6HR MIN TEMP:  58; 6HR MAX TEMP:  69; 6HR PCP:  0.05;

CAMDEN         DRIZZLE   59  55  88 CALM      29.95F
TEXARKANA      LGT RAIN  57  57 100 W8        30.00F FOG
6HR MIN TEMP:  57; 6HR MAX TEMP:  67;

EL DORADO      LGT RAIN  64  64 100 CALM      29.95F
6HR MIN TEMP:  64; 6HR MAX TEMP:  76; 6HR PCP:  0.05;

DE QUEEN       CLOUDY    57  56  96 W10       29.99F
6HR MIN TEMP:  57; 6HR MAX TEMP:  61; 6HR PCP:  0.04;

$$

ARZ056-057-069-260100-
SOUTHEAST ARKANSAS

CITY           SKY/WX    TMP DP  RH WIND       PRES   REMARKS
PINE BLUFF     LGT RAIN  57  54  89 E9        29.94F
6HR MIN TEMP:  57; 6HR MAX TEMP:  75; 6HR PCP:  0.04;

STUTTGART      LGT RAIN  57  54  89 E10       29.94F
6HR MIN TEMP:  57; 6HR MAX TEMP:  73; 6HR PCP:  0.12;

MONTICELLO       N/A     61  57  87 NE5       29.94F
6HR MIN TEMP:  61; 6HR MAX TEMP:  78;


$$






USA.gov is the U.S. government's official web portal to all federal, state and local government web resources and services.